Погода в Невере

Франция     46°59′42″N   3°10′06″E
темп.,
°C
ветер,
м/с
пор.,
м/с
влажн.,
%
обл.,
%
осадки,
мм/ч
давл.,
гПа
погр.,
м
14 августа, вс
вс1423:00+21в2233100 0.0 101023
02:00+19вюв2235100 0.0 100917
05:00+20зюз41141100 0.0 1009400
08:00+18зюз31086100 0.0 1010475
11:00+20зюз1380100 0.3 1009453
14:00+20в238686 2.6 1009235
17:00+19ю0193100 9.9 100891
20:00+18юв3696100 13.9 1008180
15 августа, пн
пн1523:00+16юв129667 1.9 100825
02:00+16ююз24967 2.3 100898
05:00+15ююз2896100 0.1 1008205
08:00+15ю3994100 0.8 1008497
11:00+17зюз5119380 3.6 1007796
14:00+21зюз698219 8.3 10081031
17:00+24ююз466089 2.5 10071084
20:00+22ююв116456 2.6 100616
16 августа, вт
вт1623:00+18ююв227645 0.0 100812
02:00+16ю22825 0.0 100812
05:00+15ююв1184100 0.0 100811
08:00+17ююв128098 0.0 100882
11:00+21юв1260100 0.0 1009488
14:00+22зсз3360100 0.0 1009512
17:00+17ююв2591100 2.3 1011197
20:00+16в3894100 5.1 1008164
17 августа, ср
ср1723:00+16ю3996100 0.1 1011263
02:00+16юв51296100 0.7 1010448
05:00+15юв289896 0.0 1010298
08:00+15ю139832 0.0 1011113
11:00+20зюз237078 0.0 1012662
14:00+25зюз234872 0.0 10111761
17:00+22всв116345 0.3 1010338
20:00+19з238393 1.4 101044
18 августа, чт
чт1823:00+16ююв119098 1.8 101312
02:00+15юв1194100 1.8 101313
05:00+14ююз1295100 0.0 101329
08:00+14зюз2694100 0.0 1014198
11:00+19з3374100 0.0 1015684
14:00+22зсз2262100 0.8 10141217
17:00+23ссз3354100 0.4 10141422
20:00+19с2277100 1.0 101433